This is the latest recevied weather packets stored in our database for station/object HS5XHC-1. If no packets are shown the sender has not sent any weather packets the latest 1 day(s).
| Time | Temp. | Humidity | Pressure | Rain* | Wind** | Luminosity | Snow |
|---|---|---|---|---|---|---|---|
| 1778048815 | 34.44° C | 40% | 966 hPa | - | 0 m/s | 0 W/m² | - |
| 1778048191 | 34.44° C | 40% | 966 hPa | - | 0 m/s | 0 W/m² | - |
| 1778047574 | 34.44° C | 39% | 966 hPa | - | 0 m/s | 0 W/m² | - |
| 1778046943 | 33.89° C | 42% | 967 hPa | - | 0 m/s | 0 W/m² | - |
| 1778046319 | 33.89° C | 43% | 967 hPa | - | 0 m/s | 0 W/m² | - |
| 1778045695 | 33.89° C | 44% | 967 hPa | - | 0 m/s | 0 W/m² | - |
| 1778045071 | 33.33° C | 47% | 967 hPa | - | 0 m/s | 0 W/m² | - |
| 1778044447 | 33.33° C | 48% | 967 hPa | - | 0 m/s | 0 W/m² | - |
| 1778043823 | 32.78° C | 48% | 967 hPa | - | 0 m/s | 0 W/m² | - |
| 1778043199 | 32.22° C | 49% | 967 hPa | - | 0 m/s | 0 W/m² | - |
| 1778042575 | 32.22° C | 50% | 968 hPa | - | 0 m/s | 0 W/m² | - |
| 1778041951 | 32.22° C | 49% | 968 hPa | - | 0 m/s | 0 W/m² | - |
| 1778041327 | 32.22° C | 49% | 968 hPa | - | 0 m/s | 0 W/m² | - |
| 1778040703 | 31.11° C | 52% | 968 hPa | - | 0 m/s | 0 W/m² | - |
| 1778040079 | 30.56° C | 50% | 968 hPa | - | 0 m/s | 0 W/m² | - |
| 1778039455 | 30.56° C | 51% | 968 hPa | - | 0 m/s | 0 W/m² | - |
| 1778038831 | 30° C | 51% | 968 hPa | - | 0 m/s | 0 W/m² | - |
| 1778038207 | 29.44° C | 53% | 968 hPa | - | 0 m/s | 0 W/m² | - |
| 1778037584 | 29.44° C | 54% | 968 hPa | - | 0 m/s | 0 W/m² | - |
| 1778036960 | 28.89° C | 55% | 968 hPa | - | 0 m/s | 0 W/m² | - |
| 1778036336 | 28.33° C | 55% | 968 hPa | - | 0 m/s | 0 W/m² | - |
| 1778035712 | 28.33° C | 56% | 968 hPa | - | 0 m/s | 0 W/m² | - |
| 1778035088 | 27.78° C | 57% | 968 hPa | - | 0 m/s | 0 W/m² | - |
| 1778034464 | 27.78° C | 57% | 968 hPa | - | 0 m/s | 0 W/m² | - |
| 1778033840 | 27.22° C | 57% | 968 hPa | - | 0 m/s | 0 W/m² | - |
* Rain since midnight (hover to see other rain measurements)
** Current wind speed in m/s (hover to see current wind gust speed)